| time (UTC) | temp F | wind direction | speed MPH | gust MPH | rain 1hr in | rain 24hr in | rain mn in | humidity % | barometer mb |
| 20260906031520 | 59 | 207 | 0.0 | 0.0 | 0.00 | 0.00 | 0.00 | 83 | 1011.5 |
| 20260906030020 | 60 | 207 | 0.0 | 1.0 | 0.00 | 0.00 | 0.00 | 84 | 1011.4 |
| 20260906024517 | 61 | 207 | 0.0 | 0.0 | 0.00 | 0.00 | 0.00 | 82 | 1011.5 |
| 20260906023018 | 62 | 207 | 0.0 | 0.0 | 0.00 | 0.00 | 0.00 | 80 | 1011.7 |
| 20260906021519 | 63 | 207 | 0.0 | 1.0 | 0.00 | 0.00 | 0.00 | 76 | 1011.7 |
| 20260906020015 | 64 | 207 | 0.0 | 1.0 | 0.00 | 0.00 | 0.00 | 74 | 1011.8 |
| 20260906014526 | 65 | 207 | 0.0 | 1.0 | 0.00 | 0.00 | 0.00 | 75 | 1011.7 |
| 20260906013016 | 67 | 207 | 0.0 | 2.0 | 0.00 | 0.00 | 0.00 | 64 | 1011.9 |
| 20260906011522 | 66 | 106 | 0.0 | 3.0 | 0.00 | 0.00 | 0.00 | 67 | 1011.9 |
| 20260906010013 | 68 | 104 | 0.0 | 3.0 | 0.00 | 0.00 | 0.00 | 61 | 1011.9 |
| 20260906004517 | 68 | 84 | 0.0 | 3.0 | 0.00 | 0.00 | 0.00 | 61 | 1012.1 |
| 20260906003009 | 69 | 317 | 0.0 | 3.0 | 0.00 | 0.00 | 0.00 | 57 | 1012.0 |
| 20260906001508 | 69 | 80 | 1.0 | 3.0 | 0.00 | 0.00 | 0.00 | 58 | 1012.0 |
| 20260906000003 | 69 | 225 | 0.0 | 4.0 | 0.00 | 0.00 | 0.00 | 59 | 1011.9 |
| 20260905234608 | 69 | 263 | 0.0 | 3.0 | 0.00 | 0.00 | 0.00 | 61 | 1012.0 |
| 20260905234501 | 68 | 33 | 1.0 | 3.0 | 0.00 | 0.00 | 0.00 | 62 | 1012.1 |
| 20260905233101 | 68 | 58 | 0.0 | 5.0 | 0.00 | 0.00 | 0.00 | 62 | 1012.1 |
| 20260905231558 | 70 | 152 | 1.0 | 7.0 | 0.00 | 0.00 | 0.00 | 58 | 1012.1 |
| 20260905230053 | 70 | 78 | 1.0 | 4.0 | 0.00 | 0.00 | 0.00 | 56 | 1012.2 |
| 20260905224548 | 70 | 108 | 0.0 | 5.0 | 0.00 | 0.00 | 0.00 | 59 | 1012.0 |
| 20260905223046 | 69 | 126 | 1.0 | 3.0 | 0.00 | 0.00 | 0.00 | 58 | 1012.1 |
| 20260905221546 | 70 | 201 | 1.0 | 4.0 | 0.00 | 0.00 | 0.00 | 55 | 1012.4 |
| 20260905220045 | 70 | 269 | 1.0 | 4.0 | 0.00 | 0.00 | 0.00 | 57 | 1012.4 |
| 20260905214540 | 70 | 120 | 1.0 | 9.0 | 0.00 | 0.00 | 0.00 | 55 | 1012.4 |
| 20260905213041 | 71 | 136 | 1.0 | 6.0 | 0.00 | 0.00 | 0.00 | 57 | 1012.3 |
| 20260905211539 | 70 | 360 | 1.0 | 2.0 | 0.00 | 0.00 | 0.00 | 61 | 1012.2 |
| 20260905210028 | 70 | 210 | 1.0 | 3.0 | 0.00 | 0.00 | 0.00 | 63 | 1012.5 |
| 20260905204525 | 70 | 162 | 1.0 | 4.0 | 0.00 | 0.00 | 0.00 | 61 | 1012.7 |
| 20260905203021 | 68 | 164 | 1.0 | 2.0 | 0.00 | 0.00 | 0.00 | 66 | 1012.9 |
| 20260905201517 | 68 | 108 | 1.0 | 3.0 | 0.00 | 0.00 | 0.00 | 69 | 1012.8 |
| 20260905200014 | 68 | 80 | 2.0 | 7.0 | 0.00 | 0.00 | 0.00 | 69 | 1012.6 |
| 20260905194509 | 66 | 309 | 1.0 | 3.0 | 0.00 | 0.00 | 0.00 | 74 | 1012.8 |
| 20260905193007 | 66 | 69 | 1.0 | 4.0 | 0.00 | 0.00 | 0.00 | 75 | 1013.0 |
| 20260905191507 | 66 | 290 | 1.0 | 5.0 | 0.00 | 0.00 | 0.00 | 73 | 1013.1 |
| 20260905190007 | 66 | 84 | 1.0 | 3.0 | 0.00 | 0.00 | 0.00 | 75 | 1013.4 |
| 20260905184559 | 64 | 271 | 0.0 | 4.0 | 0.00 | 0.00 | 0.00 | 80 | 1013.4 |
| 20260905183058 | 63 | 94 | 0.0 | 3.0 | 0.00 | 0.00 | 0.00 | 81 | 1013.6 |
| 20260905181557 | 63 | 41 | 1.0 | 3.0 | 0.00 | 0.00 | 0.00 | 78 | 1013.7 |
| 20260905180058 | 62 | 26 | 0.0 | 3.0 | 0.00 | 0.00 | 0.00 | 83 | 1013.8 |
| 20260905174547 | 61 | 282 | 1.0 | 4.0 | 0.00 | 0.00 | 0.00 | 88 | 1013.9 |
| 20260905173043 | 59 | 95 | 0.0 | 2.0 | 0.00 | 0.00 | 0.00 | 90 | 1013.9 |
| 20260905171541 | 58 | 94 | 0.0 | 3.0 | 0.00 | 0.00 | 0.00 | 91 | 1014.0 |
| 20260905170046 | 57 | 76 | 1.0 | 2.0 | 0.00 | 0.00 | 0.00 | 95 | 1014.1 |
| 20260905164534 | 56 | 64 | 1.0 | 2.0 | 0.00 | 0.00 | 0.00 | 95 | 1013.9 |
| 20260905163031 | 55 | 65 | 0.0 | 2.0 | 0.00 | 0.00 | 0.00 | 96 | 1013.8 |
| 20260905161529 | 55 | 288 | 0.0 | 2.0 | 0.00 | 0.00 | 0.00 | 96 | 1013.7 |
| 20260905160039 | 55 | 295 | 0.0 | 1.0 | 0.00 | 0.00 | 0.00 | 97 | 1013.9 |
| 20260905154526 | 54 | 295 | 0.0 | 2.0 | 0.00 | 0.00 | 0.00 | 96 | 1013.7 |
| 20260905153035 | 54 | 299 | 0.0 | 2.0 | 0.00 | 0.00 | 0.00 | 96 | 1013.7 |
| 20260905151525 | 54 | 286 | 0.0 | 1.0 | 0.00 | 0.00 | 0.00 | 96 | 1013.8 |
| 20260905150023 | 54 | 286 | 0.0 | 0.0 | 0.00 | 0.00 | 0.00 | 97 | 1013.8 |
| 20260905144531 | 54 | 286 | 0.0 | 2.0 | 0.00 | 0.01 | 0.00 | 96 | 1013.7 |
| 20260905041513 | 53 | 311 | 0.0 | 0.0 | 0.00 | 0.03 | 0.03 | 93 | 1011.7 |
| 20260905040018 | 53 | 311 | 0.0 | 0.0 | 0.00 | 0.03 | 0.03 | 93 | 1011.5 |
| 20260905034509 | 54 | 311 | 0.0 | 0.0 | 0.00 | 0.03 | 0.03 | 93 | 1011.3 |
| 20260905033008 | 54 | 311 | 0.0 | 0.0 | 0.00 | 0.03 | 0.03 | 92 | 1011.2 |